GW5874 Weather Reports


Display with metric or nautical units.
time (UTC)temp
F
wind
direction
speed
MPH
gust
MPH
rain 1hr
in
rain 24hr
in
rain mn
in
humidity
%
barometer
mb
20260905085624 71 278 0.0 0.0 0.00 0.00 0.00 91 1014.4
20260905085120 71 265 0.0 0.0 0.00 0.00 0.00 91 1014.2
20260905084619 71 260 0.0 0.0 0.00 0.00 0.00 91 1014.2
20260905084115 71 293 0.0 0.0 0.00 0.00 0.00 91 1013.9
20260905083615 71 264 0.0 0.0 0.00 0.00 0.00 91 1014.2
20260905083111 71 250 0.0 0.0 0.00 0.00 0.00 91 1014.2
20260905082606 71 250 0.0 0.0 0.00 0.00 0.00 90 1014.5
20260905082102 71 268 0.0 0.0 0.00 0.00 0.00 90 1014.1
20260905081601 71 274 0.0 0.0 0.00 0.00 0.00 89 1014.1
20260905081057 71 274 0.0 0.0 0.00 0.00 0.00 89 1014.2
20260905080556 72 271 0.0 0.0 0.00 0.00 0.00 89 1014.1
20260905080052 72 259 0.0 0.0 0.00 0.00 0.00 89 1014.1
20260905075550 72 273 0.0 0.0 0.00 0.00 0.00 89 1014.2
20260905075050 72 276 0.0 0.0 0.00 0.00 0.00 89 1014.1
20260905074550 72 260 0.0 0.0 0.00 0.00 0.00 89 1014.3
20260905074046 72 261 0.0 0.0 0.00 0.00 0.00 88 1014.1
20260905073541 73 261 0.0 0.0 0.00 0.00 0.00 87 1014.2
20260905073037 73 288 0.0 0.0 0.00 0.00 0.00 87 1014.1
20260905072536 73 284 0.0 0.0 0.00 0.00 0.00 86 1014.4
20260905072032 73 279 0.0 0.0 0.00 0.00 0.00 86 1014.1
20260905071528 73 278 0.0 0.0 0.00 0.00 0.00 86 1014.2
20260905071028 73 289 0.0 0.0 0.00 0.00 0.00 86 1014.2
20260905070523 73 290 0.0 0.0 0.00 0.00 0.00 86 1014.3
20260905070019 73 284 0.0 0.0 0.00 0.00 0.00 87 1014.4
20260905065517 73 281 0.0 0.0 0.00 0.00 0.00 87 1014.5
20260905065012 73 245 0.0 0.0 0.00 0.00 0.00 87 1014.5
20260905064507 73 256 0.0 0.0 0.00 0.00 0.00 86 1014.5
20260905064002 73 267 0.0 0.0 0.00 0.00 0.00 86 1014.6
20260905063456 73 277 0.0 0.0 0.00 0.00 0.00 86 1014.6
20260905062953 73 261 0.0 0.0 0.00 0.00 0.00 86 1014.4
20260905062452 73 234 0.0 0.0 0.00 0.00 0.00 86 1014.5
20260905061947 73 277 0.0 0.0 0.00 0.00 0.00 85 1014.5
20260905061442 73 273 0.0 0.0 0.00 0.00 0.00 85 1014.3
20260905060941 73 269 0.0 0.0 0.00 0.00 0.00 85 1014.3
20260905060438 73 266 0.0 0.0 0.00 0.00 0.00 85 1014.3
20260905055937 74 261 0.0 0.0 0.00 0.00 0.00 84 1014.6
20260905055432 74 277 0.0 0.0 0.00 0.00 0.00 84 1014.4
20260905054931 74 267 0.0 0.0 0.00 0.00 0.00 84 1014.4
20260905054427 74 262 0.0 0.0 0.00 0.00 0.00 83 1014.4
20260905053927 74 242 0.0 0.0 0.00 0.00 0.00 83 1014.6
20260905053422 75 280 0.0 0.0 0.00 0.00 0.00 83 1014.6
20260905052917 75 268 0.0 0.0 0.00 0.00 0.00 82 1014.6
20260905052417 75 285 0.0 0.0 0.00 0.00 0.00 82 1014.4
20260905051916 75 278 0.0 0.0 0.00 0.00 0.00 82 1014.6
20260905051412 75 287 0.0 0.0 0.00 0.00 0.00 82 1014.4
20260905050909 75 286 0.0 0.0 0.00 0.00 0.00 82 1014.6
20260905050405 75 291 0.0 0.0 0.00 0.00 0.00 81 1014.5
20260905045900 75 278 0.0 0.0 0.00 0.00 0.00 81 1014.6
20260905045355 75 287 0.0 0.0 0.00 0.00 0.00 81 1014.6
20260905044850 75 281 0.0 0.0 0.00 0.00 0.00 80 1014.4
20260905044346 76 257 0.0 0.0 0.00 0.00 0.00 80 1014.5
20260905043844 76 172 0.0 0.0 0.00 0.00 0.00 80 1014.5
20260905043339 75 298 0.0 0.0 0.00 0.00 0.00 80 1014.6
20260905042834 75 244 0.0 0.0 0.00 0.00 0.00 80 1014.6
20260905042334 76 243 0.0 0.0 0.00 0.00 0.00 80 1014.5
20260905041829 76 281 0.0 0.0 0.00 0.00 0.00 80 1014.6
20260905041326 76 276 0.0 0.0 0.00 0.00 0.00 80 1014.5
20260905040826 76 249 0.0 0.0 0.00 0.00 0.00 79 1014.6
20260905040324 76 290 0.0 0.0 0.00 0.00 0.00 79 1014.8
20260905035824 76 291 0.0 0.0 0.00 0.00 0.00 79 1014.4
20260905035320 76 267 0.0 0.0 0.00 0.00 0.00 78 1014.4
20260905034816 77 243 0.0 0.0 0.00 0.00 0.00 78 1014.4
20260905034312 77 274 0.0 0.0 0.00 0.00 0.00 77 1014.4
20260905033810 77 273 0.0 0.0 0.00 0.00 0.00 77 1014.5
20260905033306 77 288 0.0 0.0 0.00 0.00 0.00 76 1014.2
20260905032805 77 268 0.0 0.0 0.00 0.00 0.00 76 1014.2
20260905032301 77 270 0.0 0.0 0.00 0.00 0.00 76 1014.2
20260905031755 77 262 0.0 0.0 0.00 0.00 0.00 76 1014.3
20260905031252 78 263 0.0 0.0 0.00 0.00 0.00 75 1014.1
20260905030747 78 259 0.0 0.0 0.00 0.00 0.00 75 1014.1
20260905030242 78 210 0.0 0.0 0.00 0.00 0.00 74 1014.1
20260905025742 78 267 0.0 0.0 0.00 0.00 0.00 74 1014.0
20260905025237 78 269 0.0 0.0 0.00 0.00 0.00 74 1013.9
20260905024733 78 275 0.0 0.0 0.00 0.00 0.00 73 1013.9
20260905024229 78 275 0.0 0.0 0.00 0.00 0.00 73 1013.8
20260905023729 79 274 0.0 0.0 0.00 0.00 0.00 73 1013.9
20260905023224 79 274 0.0 0.0 0.00 0.00 0.00 72 1013.6
20260905022723 78 333 0.0 0.0 0.00 0.00 0.00 73 1013.7
20260905022219 79 318 0.0 0.0 0.00 0.00 0.00 72 1013.7
20260905021719 79 275 0.0 0.0 0.00 0.00 0.00 72 1013.6
20260905021214 79 270 0.0 0.0 0.00 0.00 0.00 71 1013.3
20260905020708 80 270 0.0 0.0 0.00 0.00 0.00 70 1013.4
20260905020204 80 279 0.0 0.0 0.00 0.00 0.00 70 1013.3
20260905015703 80 262 0.0 0.0 0.00 0.00 0.00 68 1013.1
20260905015202 80 284 0.0 0.0 0.00 0.00 0.00 68 1012.8
20260905014701 81 286 0.0 0.0 0.00 0.00 0.00 68 1012.8
20260905014156 81 268 0.0 0.0 0.00 0.00 0.00 67 1013.1
20260905013653 81 267 0.0 0.0 0.00 0.00 0.00 67 1013.0
20260905013149 82 232 0.0 0.0 0.00 0.00 0.00 66 1012.6
20260905012644 82 281 0.0 0.0 0.00 0.00 0.00 65 1012.7
20260905012140 83 218 0.0 0.0 0.00 0.00 0.00 65 1012.7
20260905011636 83 282 0.0 0.0 0.00 0.00 0.00 64 1012.7
20260905011131 83 273 0.0 0.0 0.00 0.00 0.00 63 1012.7
20260905010626 84 296 0.0 0.0 0.00 0.00 0.00 60 1012.6
20260905010122 84 272 0.0 0.0 0.00 0.00 0.00 61 1012.7
20260905005618 85 243 0.0 0.0 0.00 0.00 0.00 59 1012.4
20260905005114 86 290 0.0 0.0 0.00 0.00 0.00 58 1012.4
20260905004613 87 276 0.0 0.0 0.00 0.00 0.00 57 1012.7
20260905004108 88 240 0.0 0.0 0.00 0.00 0.00 55 1012.3
20260905003604 89 291 0.0 0.0 0.00 0.00 0.00 54 1012.5
20260905003100 90 287 0.0 0.0 0.00 0.00 0.00 48 1012.3
20260905002555 91 304 1.0 1.0 0.00 0.00 0.00 47 1012.2
20260905002050 93 231 1.0 1.0 0.00 0.00 0.00 46 1012.5
20260905001545 94 218 1.0 1.0 0.00 0.00 0.00 43 1012.4
20260905001044 95 251 0.0 0.0 0.00 0.00 0.00 40 1012.3
20260905000539 95 235 0.0 0.0 0.00 0.00 0.00 40 1012.4
20260905000036 95 162 2.0 3.0 0.00 0.00 0.00 39 1012.4
20260904235530 96 65 2.0 3.0 0.00 0.00 0.00 41 1012.4
20260904235030 97 212 2.0 3.0 0.00 0.00 0.00 38 1012.4
20260904234530 97 182 1.0 1.0 0.00 0.00 0.00 39 1012.3
20260904234026 97 191 3.0 4.0 0.00 0.00 0.00 38 1012.3
20260904233521 98 99 2.0 3.0 0.00 0.00 0.00 39 1012.2
20260904233017 98 229 2.0 3.0 0.00 0.00 0.00 37 1012.1
20260904232514 98 184 3.0 4.0 0.00 0.00 0.00 37 1012.4
20260904232010 98 120 1.0 3.0 0.00 0.00 0.00 36 1012.4
20260904231506 98 277 1.0 3.0 0.00 0.00 0.00 36 1012.3
20260904231000 98 156 3.0 4.0 0.00 0.00 0.00 36 1012.3
20260904230500 98 150 2.0 3.0 0.00 0.00 0.00 37 1012.4
20260904225955 99 84 2.0 3.0 0.00 0.00 0.00 37 1012.3
20260904225453 98 55 2.0 3.0 0.00 0.00 0.00 37 1012.2
20260904224952 99 64 3.0 4.0 0.00 0.00 0.00 36 1012.4
20260904224448 99 172 3.0 4.0 0.00 0.00 0.00 36 1012.5
20260904223948 99 201 3.0 4.0 0.00 0.00 0.00 35 1012.2
20260904223447 99 96 6.0 8.0 0.00 0.00 0.00 35 1012.4
20260904222943 100 200 2.0 4.0 0.00 0.00 0.00 35 1012.4
20260904222438 100 271 1.0 1.0 0.00 0.00 0.00 34 1012.5
20260904221938 99 196 4.0 5.0 0.00 0.00 0.00 35 1012.6
20260904221432 100 191 8.0 11.0 0.00 0.00 0.00 35 1012.5
20260904220928 100 240 3.0 4.0 0.00 0.00 0.00 34 1012.6
20260904220428 100 270 1.0 1.0 0.00 0.00 0.00 36 1012.6
20260904215923 99 260 2.0 3.0 0.00 0.00 0.00 36 1012.7
20260904215418 99 188 4.0 7.0 0.00 0.00 0.00 35 1012.6
20260904214914 100 215 2.0 3.0 0.00 0.00 0.00 35 1012.8
20260904214409 99 160 2.0 4.0 0.00 0.00 0.00 35 1012.6
20260904213909 99 96 4.0 5.0 0.00 0.00 0.00 34 1013.0
20260904213403 101 85 5.0 8.0 0.00 0.00 0.00 34 1012.8
20260904212859 100 253 3.0 4.0 0.00 0.00 0.00 34 1013.0
20260904212358 99 68 3.0 5.0 0.00 0.00 0.00 36 1013.1
20260904211854 98 229 1.0 1.0 0.00 0.00 0.00 37 1013.1
20260904211349 99 199 5.0 7.0 0.00 0.00 0.00 35 1013.0
20260904210844 99 98 4.0 4.0 0.00 0.00 0.00 36 1013.1
20260904210343 98 255 2.0 3.0 0.00 0.00 0.00 37 1013.1
20260904205839 100 223 2.0 4.0 0.00 0.00 0.00 37 1013.3
20260904205335 100 229 6.0 8.0 0.00 0.00 0.00 36 1013.2
20260904204832 100 208 8.0 10.0 0.00 0.00 0.00 37 1013.4
20260904204327 99 130 4.0 5.0 0.00 0.00 0.00 38 1013.3
20260904203824 99 218 2.0 4.0 0.00 0.00 0.00 38 1013.3
20260904203319 100 251 8.0 10.0 0.00 0.00 0.00 38 1013.3
20260904202815 100 186 4.0 5.0 0.00 0.00 0.00 38 1013.4
20260904202311 100 238 4.0 5.0 0.00 0.00 0.00 39 1013.5
20260904201807 100 191 8.0 11.0 0.00 0.00 0.00 38 1013.6
20260904201301 99 193 6.0 7.0 0.00 0.00 0.00 39 1013.6
20260904200756 101 260 4.0 4.0 0.00 0.00 0.00 37 1013.9
20260904200255 99 215 2.0 3.0 0.00 0.00 0.00 38 1013.7
20260904195755 98 240 3.0 4.0 0.00 0.00 0.00 40 1014.0
20260904195254 98 219 7.0 10.0 0.00 0.00 0.00 40 1014.0
20260904194748 99 246 2.0 3.0 0.00 0.00 0.00 39 1013.8
20260904194247 99 197 6.0 8.0 0.00 0.00 0.00 39 1014.0
20260904193743 98 147 4.0 4.0 0.00 0.00 0.00 40 1014.3
20260904193239 98 352 4.0 5.0 0.00 0.00 0.00 41 1013.9
20260904192734 97 109 4.0 5.0 0.00 0.00 0.00 43 1014.1
20260904192229 97 223 5.0 5.0 0.00 0.00 0.00 42 1014.2
20260904191726 97 185 3.0 4.0 0.00 0.00 0.00 42 1014.3
20260904191222 97 90 2.0 4.0 0.00 0.00 0.00 42 1014.2
20260904190718 98 210 6.0 8.0 0.00 0.00 0.00 41 1014.4
20260904190214 99 109 3.0 4.0 0.00 0.00 0.00 40 1014.5
20260904185710 97 197 2.0 4.0 0.00 0.00 0.00 42 1014.4
20260904185205 97 217 4.0 5.0 0.00 0.00 0.00 42 1014.8
20260904184703 97 196 3.0 4.0 0.00 0.00 0.00 42 1014.7
20260904184159 98 229 0.0 1.0 0.00 0.00 0.00 41 1014.8
20260904183655 97 211 6.0 7.0 0.00 0.00 0.00 43 1014.9
20260904183154 96 200 6.0 8.0 0.00 0.00 0.00 43 1015.1
20260904182650 97 87 5.0 8.0 0.00 0.00 0.00 44 1015.2
20260904182145 98 195 2.0 3.0 0.00 0.00 0.00 42 1015.0
20260904181642 98 259 4.0 4.0 0.00 0.00 0.00 42 1015.0
20260904181141 96 219 2.0 3.0 0.00 0.00 0.00 42 1015.1
20260904180637 95 90 2.0 3.0 0.00 0.00 0.00 46 1015.1
20260904180132 95 174 4.0 7.0 0.00 0.00 0.00 44 1015.2
20260904175631 95 204 4.0 5.0 0.00 0.00 0.00 43 1015.3
20260904175129 95 202 7.0 10.0 0.00 0.00 0.00 44 1015.3
20260904174629 95 227 4.0 5.0 0.00 0.00 0.00 46 1015.2
20260904174126 95 329 3.0 5.0 0.00 0.00 0.00 45 1015.4
20260904173621 95 242 3.0 5.0 0.00 0.00 0.00 45 1015.5
20260904173116 94 215 3.0 4.0 0.00 0.00 0.00 46 1015.6
20260904172613 94 190 8.0 10.0 0.00 0.00 0.00 47 1015.6
20260904172112 95 201 5.0 7.0 0.00 0.00 0.00 47 1015.7
20260904171607 94 175 3.0 4.0 0.00 0.00 0.00 49 1015.7
20260904171102 93 152 5.0 7.0 0.00 0.00 0.00 48 1015.8
20260904170558 93 194 5.0 10.0 0.00 0.00 0.00 48 1015.7
20260904170054 94 233 2.0 3.0 0.00 0.00 0.00 50 1015.8
20260904165552 93 215 2.0 3.0 0.00 0.00 0.00 49 1015.8
20260904165052 95 173 2.0 5.0 0.00 0.00 0.00 48 1016.1
20260904164547 94 227 5.0 7.0 0.00 0.00 0.00 48 1015.9
20260904164043 93 101 3.0 4.0 0.00 0.00 0.00 50 1015.9
20260904163543 93 168 5.0 7.0 0.00 0.00 0.00 51 1015.9
20260904163038 94 209 5.0 5.0 0.00 0.00 0.00 48 1016.2
20260904162532 94 134 3.0 4.0 0.00 0.00 0.00 50 1016.1
20260904162028 93 215 5.0 7.0 0.00 0.00 0.00 52 1016.1
20260904161528 93 252 2.0 3.0 0.00 0.00 0.00 52 1016.1
20260904161024 93 101 4.0 4.0 0.00 0.00 0.00 52 1016.1
20260904160518 92 230 0.0 1.0 0.00 0.00 0.00 53 1015.9
20260904160015 91 218 2.0 3.0 0.00 0.00 0.00 56 1016.1
20260904155514 90 267 2.0 3.0 0.00 0.00 0.00 57 1015.9
20260904155014 91 235 4.0 5.0 0.00 0.00 0.00 55 1016.2
20260904154508 91 240 1.0 1.0 0.00 0.00 0.00 56 1016.2
20260904154002 90 192 1.0 1.0 0.00 0.00 0.00 57 1016.2
20260904153457 90 247 1.0 1.0 0.00 0.00 0.00 57 1016.3
20260904152954 90 181 4.0 5.0 0.00 0.00 0.00 58 1016.3
20260904152450 89 231 1.0 1.0 0.00 0.00 0.00 59 1016.1
20260904151949 89 197 3.0 4.0 0.00 0.00 0.00 59 1016.3
20260904151445 89 244 1.0 1.0 0.00 0.00 0.00 60 1016.3
20260904150944 88 188 1.0 1.0 0.00 0.00 0.00 61 1016.2
20260904150439 87 213 5.0 7.0 0.00 0.00 0.00 62 1016.3
20260904145937 87 246 2.0 4.0 0.00 0.00 0.00 63 1016.1
20260904145434 87 189 4.0 7.0 0.00 0.00 0.00 62 1016.3
20260904144929 86 237 3.0 5.0 0.00 0.00 0.00 63 1016.4
20260904144424 86 113 2.0 3.0 0.00 0.00 0.00 64 1016.2
20260904143920 86 317 2.0 3.0 0.00 0.00 0.00 64 1016.2
20260904143416 85 352 2.0 4.0 0.00 0.00 0.00 66 1016.1
20260904142913 85 172 3.0 4.0 0.00 0.00 0.00 66 1016.4
20260904142409 85 167 2.0 3.0 0.00 0.00 0.00 66 1016.5
20260904141908 85 224 3.0 4.0 0.00 0.00 0.00 64 1016.5
20260904141404 84 187 1.0 3.0 0.00 0.00 0.00 67 1016.4
20260904140901 83 171 1.0 1.0 0.00 0.00 0.00 68 1016.3
20260904140400 83 178 3.0 4.0 0.00 0.00 0.00 66 1016.3
20260904135900 84 195 2.0 3.0 0.00 0.00 0.00 65 1016.3
20260904135354 84 224 1.0 1.0 0.00 0.00 0.00 67 1016.2
20260904134851 84 186 2.0 3.0 0.00 0.00 0.00 65 1016.3
20260904134351 84 183 0.0 0.0 0.00 0.00 0.00 66 1016.2
20260904133850 83 192 0.0 0.0 0.00 0.00 0.00 68 1016.1
20260904133346 80 148 0.0 0.0 0.00 0.00 0.00 72 1016.2
20260904132846 79 213 0.0 0.0 0.00 0.00 0.00 74 1016.3
20260904132341 79 250 0.0 0.0 0.00 0.00 0.00 75 1016.2
20260904131841 78 244 0.0 0.0 0.00 0.00 0.00 78 1016.4
20260904131337 77 241 0.0 0.0 0.00 0.00 0.00 81 1016.1
20260904130837 75 241 0.0 0.0 0.00 0.00 0.00 86 1016.1
20260904130336 73 254 0.0 0.0 0.00 0.00 0.00 90 1016.1
20260904125832 71 234 0.0 0.0 0.00 0.00 0.00 93 1015.9
20260904125328 70 273 0.0 0.0 0.00 0.00 0.00 95 1015.8
20260904124827 69 293 0.0 0.0 0.00 0.00 0.00 95 1015.8
20260904124324 69 293 0.0 0.0 0.00 0.00 0.00 96 1015.8
20260904123819 68 278 0.0 0.0 0.00 0.00 0.00 96 1015.8
20260904123314 68 260 0.0 0.0 0.00 0.00 0.00 96 1015.9
20260904122809 68 243 0.0 0.0 0.00 0.00 0.00 96 1015.8
20260904122308 68 291 0.0 0.0 0.00 0.00 0.00 96 1015.7
20260904121803 68 98 0.0 0.0 0.00 0.00 0.00 96 1015.8
20260904121259 68 268 0.0 0.0 0.00 0.00 0.00 96 1015.6
20260904120756 68 257 0.0 0.0 0.00 0.00 0.00 96 1015.9
20260904120251 68 280 0.0 0.0 0.00 0.00 0.00 95 1015.6
20260904115746 68 269 0.0 0.0 0.00 0.00 0.00 95 1015.5
20260904115242 68 277 0.0 0.0 0.00 0.00 0.00 95 1015.7
20260904114736 68 277 0.0 0.0 0.00 0.00 0.00 95 1015.5
20260904114236 68 242 0.0 0.0 0.00 0.00 0.00 95 1015.5
20260904113731 68 274 0.0 0.0 0.00 0.00 0.00 95 1015.5
20260904113230 68 288 0.0 0.0 0.00 0.00 0.00 95 1015.4
20260904112725 68 279 0.0 0.0 0.00 0.00 0.00 95 1015.4
20260904112221 68 283 0.0 0.0 0.00 0.00 0.00 95 1015.3
20260904111716 68 268 0.0 0.0 0.00 0.00 0.00 95 1015.3
20260904111212 68 289 0.0 0.0 0.00 0.00 0.00 95 1015.1
20260904110708 68 284 0.0 0.0 0.00 0.00 0.00 95 1014.9
20260904110206 68 275 0.0 0.0 0.00 0.00 0.00 95 1015.1
20260904105701 68 266 0.0 0.0 0.00 0.00 0.00 95 1015.2
20260904105156 68 266 0.0 0.0 0.00 0.00 0.00 94 1015.1
20260904104652 68 267 0.0 0.0 0.00 0.00 0.00 94 1014.9
20260904104147 68 278 0.0 0.0 0.00 0.00 0.00 94 1015.1
20260904103644 68 236 0.0 0.0 0.00 0.00 0.00 94 1015.0
20260904103139 68 260 0.0 0.0 0.00 0.00 0.00 93 1015.0
20260904102635 69 260 0.0 0.0 0.00 0.00 0.00 93 1015.1
20260904102129 69 251 0.0 0.0 0.00 0.00 0.00 93 1015.1
20260904101627 69 292 0.0 0.0 0.00 0.00 0.00 93 1014.8
20260904101122 69 315 0.0 0.0 0.00 0.00 0.00 93 1014.9
20260904100618 69 287 0.0 0.0 0.00 0.00 0.00 94 1015.0
20260904100112 69 288 0.0 0.0 0.00 0.00 0.00 94 1014.9
20260904095607 69 291 0.0 0.0 0.00 0.00 0.00 94 1014.6
20260904095102 68 256 0.0 0.0 0.00 0.00 0.00 94 1014.8
20260904094602 69 256 0.0 0.0 0.00 0.00 0.00 94 1014.7
20260904094057 69 240 0.0 0.0 0.00 0.00 0.00 94 1014.6
20260904093555 69 248 0.0 0.0 0.00 0.00 0.00 94 1014.5
20260904093054 69 246 0.0 0.0 0.00 0.00 0.00 93 1014.6
20260904092550 69 252 0.0 0.0 0.00 0.00 0.00 93 1014.5
20260904092047 69 284 0.0 0.0 0.00 0.00 0.00 93 1014.5
20260904091543 69 264 0.0 0.0 0.00 0.00 0.00 93 1014.5
20260904091042 69 258 0.0 0.0 0.00 0.00 0.00 92 1014.4
20260904090537 69 256 0.0 0.0 0.00 0.00 0.00 92 1014.4
20260904090033 69 287 0.0 0.0 0.00 0.00 0.00 92 1014.4